Regional Weather Roundup
Issued by NWS State College, PA

Home | Current Version | Previous Version | Text Only | Print | Product List | Glossary On
Versions: 1 2 3 4 5 6 7 8 9 10 11 12 13 14 15 16 17 18 19 20 21 22 23 24 25 26 27 28 29 30 31 32 33 34 35 36 37 38 39 40 41 42 43 44 45 46 47 48 49 50
000
ASUS41 KCTP 200410
RWRCTP
NATIONAL WEATHER SERVICE STATE COLLEGE PA
1200 AM EDT WED SEP 20 2017

Note: "fair" indicates few or no clouds below 12,000 feet with no
significant weather and/or obstructions to visibility.

* = STATION THAT DOES NOT REPORT PRECIPITATION /E.G. RAIN...SNOW...ETC/
    THUNDER OR FOG.

PAZ002>004-007>009-013>016-020>023-029>032-200500-
WESTERN PENNSYLVANIA

CITY           SKY/WX    TMP DP  RH WIND       PRES   REMARKS
ERIE           CLEAR     66  63  90 CALM      29.98F
MEADVILLE      CLEAR     67  65  93 E3        30.01S
FRANKLIN*      FOG       63  63 100 CALM      30.02S VSB 3/4
NEW CASTLE     MOCLDY    65  65 100 CALM      30.00S
BEAVER COUNTY  NOT AVBL
BUTLER*        CLEAR     61  60  97 CALM      30.01S FOG
PITTSBURGH INT PTCLDY    68  63  84 CALM      29.99S
PITTSBURGH     CLEAR     71  59  65 CALM      29.99S
INDIANA*       CLEAR     63  61  94 CALM      30.03F
LATROBE        CLEAR     61  61 100 CALM      30.01S
WASHINGTON CO* MOCLDY    61  59  94 CALM      30.00S
$$

PAZ004>006-010>012-017>019-024>028-033>037-041-042-045-046-049>053-200500-
CENTRAL PENNSYLVANIA

CITY           SKY/WX    TMP DP  RH WIND       PRES   REMARKS
BRADFORD       CLEAR     56  56 100 CALM      30.04F
DUBOIS         CLEAR     63  57  81 CALM      30.02S
CLEARFIELD     CLEAR     59  58  96 N3        30.02S
JOHNSTOWN      CLEAR     64  61  90 CALM      30.04S
ALTOONA        CLEAR     58  58 100 S3        30.02S
STATE COLLEGE  CLEAR     61  60  97 CALM      30.00F FOG
WILLIAMSPORT   CLEAR     64  61  90 CALM      29.97S
SELINSGROVE    CLEAR     59  59 100 CALM      29.97F FOG
FT INDIANTOWN  CLOUDY    73  62  69 N6        29.94F
CAPITAL CITY   CLEAR     66  62  87 SW5       29.94F
HARRISBURG     MOCLDY    70  66  87 N6        29.93F
YORK           PTCLDY    64  64 100 W3        29.94F
$$

PAZ038>040-043-044-047-048-054-055-060>062-067>071-200500-
EASTERN PENNSYLVANIA

CITY           SKY/WX    TMP DP  RH WIND       PRES   REMARKS
SCRANTON       CLEAR     65  61  87 CALM      29.97F
MOUNT POCONO   PTCLDY    65  60  84 N9        29.99F
ALLENTOWN      CLOUDY    69  63  81 NW5       29.91F
QUAKERTOWN*    MOCLDY    68  66  94 N7        29.92F
READING        CLOUDY    72  66  81 NE7       29.91F
LANCASTER      CLOUDY    72  64  76 N9        29.92F
COATESVILLE    LGT RAIN  68  66  94 N8G15     29.93F
POTTSTOWN        N/A     68  66  93 N8        29.92F
BLUE BELL      CLOUDY    66  64  94 CALM      29.90F
DOYLESTOWN     NOT AVBL
WILLOW GROVE   NOT AVBL
NORTH PHILA    MOCLDY    72  65  78 N12       29.87F
PHILADELPHIA   CLOUDY    72  64  76 N14G24    29.87S
$$




USA.gov is the U.S. government's official web portal to all federal, state and local government web resources and services.